www.srh.weather.gov   
NOAA logo - Click to go to the NOAA homepage   NWS logo
Weather Roundup
Enter Your "City, ST" or zip code   
Current Version              Previous Version:    01  02  03  04  05  06  07  08  09  10  11  12  13  14  15  16  17  18  19  20  21  22  23  24  25  26  27  28  29  30  
   31  32  33  34  35  36  37  38  39  40  41  42  43  44  45  46  47  48  49  50  51  52  53  54  55  56  57  58  59  60  
[Printable]
018
NZUS93 KARX 301810
HRRWXR

CURRENT HOURLY OBSERVATIONS ACROSS
MUCH OF THE UPPER MISSISSIPPI VALLEY
NATIONAL WEATHER SERVICE LA CROSSE WI
100 PM CDT SAT AUG 30 2014


...SOUTHEAST MINNESOTA...


CITY           SKY/WX    TMP DP  RH WIND       PRES   REMARKS
ROCHESTER      PTSUNNY   73  63  70 NW12      29.87R
ROCHESTER/MAYO CLOUDY    72  60  67 W10G17    29.86R
WINONA         CLOUDY    70  64  83 NW5       29.83R
AUSTIN         MOSUNNY   73  64  73 NW9       29.86S
ALBERT LEA     PTSUNNY   73  66  78 W6        29.87S
DODGE CENTER   PTSUNNY   73  64  73 NW8       29.87R
PRESTON        PTSUNNY   73  68  84 NW5       29.87S
OWATONNA       MOSUNNY   75  64  69 NW9       29.86F
FARIBAULT      MOSUNNY   79  61  53 CALM      29.86S
$$

...ELSEWHERE IN MINNESOTA...


CITY           SKY/WX    TMP DP  RH WIND       PRES   REMARKS
MINNEAPOLIS    CLOUDY    72  62  71 N7        29.86R
INTNL FALLS    MOSUNNY   67  53  61 N9        29.90F
DULUTH         PTSUNNY   68  60  75 VRB6      29.87S
RED WING       CLOUDY    72  64  78 NW9       29.84R
REDWOOD FALLS  CLOUDY    67  63  87 W9        29.89S
MANKATO        CLOUDY    70  63  78 W8        29.88S
WORTHINGTON    PTSUNNY   68  63  83 W6        29.94S
FAIRMONT       CLOUDY    66  61  82 W5        29.91S
$$

...SOUTHWEST WISCONSIN...


CITY           SKY/WX    TMP DP  RH WIND       PRES   REMARKS
LA CROSSE      PTSUNNY   77  66  68 NW9       29.81R
PRAIRIE DU CHI PTSUNNY   75  66  73 NW7       29.83R
BOSCOBEL       CLOUDY    78  67  68 VRB6      29.82S
LONE ROCK      LGT RAIN  79  69  71 W14       29.81R
PLATTEVILLE    CLOUDY    75  69  82 W13       29.86R
FORT MC COY    PTSUNNY   74  64  69 W6        29.82R
CAMP DOUGLAS   PTSUNNY   73  73 100 VRB6      29.80F
VIROQUA        CLOUDY    73  69  86 W6        29.84R
WIS DELLS      RAIN      69  66  89 W3        29.80S
$$

...ELSEWHERE IN WISCONSIN...


CITY           SKY/WX    TMP DP  RH WIND       PRES   REMARKS
MILWAUKEE      PTSUNNY   75  67  76 SW16G28   29.81R
MADISON        PTSUNNY   75  68  78 SW6       29.80S
GREEN BAY      CLOUDY    75  69  81 NW10      29.75R
EAU CLAIRE     CLOUDY    69  65  86 NW9       29.82R
BLACK RVR FLS  MOCLDY    76  65  70 W8        29.80S
MEDFORD        CLOUDY    68  63  86 NW7       29.81S
WAUSAU         CLOUDY    72  66  81 NW8       29.77S
WIS RAPIDS     CLOUDY    73  68  84 W9        29.80S
MARSHFIELD     CLOUDY    73  66  78 NW12      29.80R
RICE LAKE      CLOUDY    65  61  87 N9        29.86S
$$

...NORTHEAST IOWA...


CITY           SKY/WX    TMP DP  RH WIND       PRES   REMARKS
WATERLOO       CLOUDY    76  66  71 W12       29.87S
DUBUQUE        PTSUNNY   75  67  76 W12       29.87R
DECORAH        PTSUNNY   77  66  69 NW10G16   29.84S
MASON CITY     PTSUNNY   75  66  73 NW12      29.89S
CHARLES CITY   MOSUNNY   75  66  73 NW10      29.88S
OELWEIN        PTSUNNY   77  66  69 NW14G21   29.88R
$$

...ELSEWHERE IN IOWA...


CITY           SKY/WX    TMP DP  RH WIND       PRES   REMARKS
DES MOINES     PTSUNNY   79  69  71 NW9       29.90S
IOWA CITY      CLOUDY    76  68  76 W8        29.90R
FORT DODGE     CLOUDY    72  64  78 W5        29.92S
MARSHALLTOWN   PTSUNNY   76  68  76 NW10      29.89S
CEDAR RAPIDS   CLOUDY    75  68  78 W9        29.89R
$$

...NORTHERN ILLINOIS...


CITY           SKY/WX    TMP DP  RH WIND       PRES   REMARKS
CHICAGO-OHARE  PTSUNNY   79  66  64 SW14G26   29.85S
DUPAGE         MOSUNNY   81  68  64 SW20      29.86S
CHICAGO-MIDWAY PTSUNNY   83  69  62 SW22G33   29.85F
MOLINE         PTSUNNY   77  67  71 W9        29.88R
ROCKFORD       CLOUDY    74  66  76 SW13      29.87R
STERLING       CLOUDY    79  68  69 W15       29.88S
PEORIA         MOSUNNY   82  70  66 SW10      29.90F
$$

NOTE: "FAIR" INDICATES FEW OR NO CLOUDS BELOW 12,000 FEET WITH NO
SIGNIFICANT WEATHER AND/OR OBSTRUCTIONS TO VISIBILITY. WIND
SPEEDS ARE IN MILES-PER-HOUR.



National Weather Service
Disclaimer
Last Modified: August 31, 2005
Privacy Policy